Childress, TX

12:37 AM CDT on May 26, 2017 (GMT -0500)
Childress Municipal

Weather History for KCDS - October, 2013

Change the Weather History Date:

Friday, October 4, 2013

  Actual Average Record
Temperature  
Mean Temperature 79 °F 67 °F  
Max Temperature 95 °F 80 °F 100 °F (1931)
Min Temperature 63 °F 54 °F 41 °F (1902)
Degree Days  
Heating Degree Days 0 2  
Month to date heating degree days 0 8  
Since 1 July heating degree days 0 25  
Cooling Degree Days 14 4  
Month to date cooling degree days 50 19  
Year to date cooling degree days 2356 2143  
Growing Degree Days 32 (Base 50)    
Moisture  
Dew Point 57 °F    
Average Humidity 49    
Maximum Humidity 73    
Minimum Humidity 24    
Precipitation  
Precipitation 0.00 in 0.07 in 2.04 in (1955)
Month to date precipitation 0.00 0.27  
Year to date precipitation 13.93 19.78  
Snow  
Snow 0.00 in 0.00 in - ()
Month to date snowfall 0.0 0.0  
Since 1 July snowfall 0.0 0.0  
Since 1 September snowfall 0.0 0.0  
Snow Depth -    
Sea Level Pressure  
Sea Level Pressure 29.71 in    
Wind  
Wind Speed 15 mph (SSW)    
Max Wind Speed 33 mph    
Max Gust Speed 40 mph    
Visibility 10 miles    
Events      
T = Trace of Precipitation, MM = Missing Value Source: NWS Daily Summary

Daily Weather History Graph

Daily Weather History Graph

Search for Another Location

Airport or City:

Trip Planner

Search our weather history database for the weather conditions in past years. The results will help you decide how hot, cold, wet, or windy it might be!

Date:

Astronomy

Oct. 04, 2013 Rise Set
Actual Time 7:38 AM CDT 7:20 PM CDT
Civil Twilight 7:13 AM CDT 7:45 PM CDT
Nautical Twilight 6:43 AM CDT 8:14 PM CDT
Astronomical Twilight 6:14 AM CDT 8:44 PM CDT
Moon 7:15 AM CDT (10/4) 7:05 PM CDT (10/4)
Length of Visible Light 12h 32m
Length of Day
11h 42m
Waning Crescent, 0% of the Moon is Illuminated
Oct 4
Waning Crescent
Oct 4
New
Oct 11
First Quarter
Oct 18
Full
Oct 26
Last Quarter

Hourly Weather History & Observations

Time (CDT) Temp. Heat Index Dew Point Humidity Pressure Visibility Wind Dir Wind Speed Gust Speed Precip Events Conditions
12:53 AM 78.1 °F - 60.1 °F 54% 29.69 in 10.0 mi South 11.5 mph - N/A   Clear
1:53 AM 75.0 °F - 60.1 °F 60% 29.70 in 10.0 mi South 9.2 mph - N/A   Clear
2:53 AM 73.9 °F - 60.1 °F 62% 29.70 in 10.0 mi South 10.4 mph - N/A   Clear
3:53 AM 73.9 °F - 60.1 °F 62% 29.69 in 10.0 mi South 11.5 mph - N/A   Partly Cloudy
4:53 AM 73.0 °F - 61.0 °F 66% 29.69 in 10.0 mi South 10.4 mph - N/A   Partly Cloudy
5:53 AM 73.0 °F - 62.1 °F 68% 29.70 in 10.0 mi South 11.5 mph - N/A   Partly Cloudy
6:53 AM 73.0 °F - 62.1 °F 68% 29.71 in 10.0 mi South 11.5 mph - N/A   Clear
7:53 AM 72.0 °F - 63.0 °F 73% 29.72 in 10.0 mi South 11.5 mph - N/A   Clear
8:53 AM 73.9 °F - 63.0 °F 68% 29.73 in 10.0 mi South 11.5 mph - N/A   Clear
9:53 AM 80.1 °F 81.5 °F 63.0 °F 56% 29.73 in 10.0 mi SSW 20.7 mph 27.6 mph N/A   Clear
10:53 AM 82.9 °F 84.0 °F 63.0 °F 51% 29.73 in 10.0 mi SSW 20.7 mph 24.2 mph N/A   Clear
11:53 AM 86.0 °F 86.3 °F 62.1 °F 44% 29.73 in 10.0 mi SSW 15.0 mph 23.0 mph N/A   Clear
12:53 PM 89.1 °F 89.3 °F 62.1 °F 40% 29.72 in 10.0 mi SSW 16.1 mph 25.3 mph N/A   Clear
1:53 PM 91.0 °F 90.5 °F 60.1 °F 35% 29.70 in 10.0 mi SSW 11.5 mph 20.7 mph N/A   Clear
2:53 PM 93.0 °F 91.1 °F 55.0 °F 28% 29.67 in 10.0 mi SSW 16.1 mph 21.9 mph N/A   Clear
3:53 PM 95.0 °F 92.7 °F 54.0 °F 25% 29.65 in 10.0 mi SSW 13.8 mph 21.9 mph N/A   Clear
4:53 PM 93.9 °F 91.7 °F 54.0 °F 26% 29.65 in 10.0 mi SSW 16.1 mph 23.0 mph N/A   Partly Cloudy
5:53 PM 93.0 °F 91.1 °F 55.0 °F 28% 29.65 in 10.0 mi South 10.4 mph - N/A   Partly Cloudy
6:53 PM 91.9 °F - 51.1 °F 25% 29.65 in 10.0 mi South 12.7 mph - N/A   Clear
7:53 PM 84.9 °F 85.4 °F 62.1 °F 46% 29.70 in 10.0 mi WNW 6.9 mph - N/A   Clear
8:53 PM 82.9 °F 82.1 °F 55.9 °F 39% 29.73 in 10.0 mi West 4.6 mph - N/A   Clear
9:53 PM 77.0 °F - 48.0 °F 36% 29.78 in 10.0 mi North 24.2 mph 31.1 mph N/A   Clear
10:53 PM 70.0 °F - 37.0 °F 30% 29.85 in 10.0 mi North 25.3 mph 32.2 mph N/A   Clear
11:53 PM 66.0 °F - 34.0 °F 30% 29.88 in 10.0 mi NNE 29.9 mph 36.8 mph N/A   Clear